Alexandria, LA

5:35 PM CST on February 09, 2016 (GMT -0600)
Alexandria International

Weather History for KAEX - August, 2013

Change the Weather History Date:

Wednesday, August 28, 2013

  Actual Average Record
Temperature  
Mean Temperature 82 °F 82 °F  
Max Temperature 95 °F 93 °F 105 °F (1943)
Min Temperature 69 °F 71 °F 56 °F (1896)
Cooling Degree Days 17 17  
Month to date cooling degree days 511 496  
Year to date cooling degree days 1912 1942  
Since 1 June cooling degree days 1519 1488  
Growing Degree Days 32 (Base 50)    
Moisture  
Dew Point 69 °F    
Average Humidity 71    
Maximum Humidity 100    
Minimum Humidity 41    
Precipitation  
Precipitation 0.00 in 0.11 in 1.49 in (2003)
Month to date precipitation 4.68 3.16  
Year to date precipitation 37.59 35.89  
Sea Level Pressure  
Sea Level Pressure 30.04 in    
Wind  
Wind Speed 2 mph (East)    
Max Wind Speed 9 mph    
Max Gust Speed 14 mph    
Visibility 9 miles    
Events      
T = Trace of Precipitation, MM = Missing Value Source: NWS Daily Summary

Daily Weather History Graph

Daily Weather History Graph

Search for Another Location

Airport or City:

Trip Planner

Search our weather history database for the weather conditions in past years. The results will help you decide how hot, cold, wet, or windy it might be!

Date:

Astronomy

Aug. 28, 2013 Rise Set
Actual Time 6:43 AM CDT 7:38 PM CDT
Civil Twilight 6:19 AM CDT 8:03 PM CDT
Nautical Twilight 5:49 AM CDT 8:32 PM CDT
Astronomical Twilight 5:19 AM CDT 9:02 PM CDT
Moon 12:01 AM CDT (8/28) 2:05 PM CDT (8/28)
Length of Visible Light 13h 44m
Length of Day
12h 54m
Waning Gibbous, 47% of the Moon is Illuminated
Aug 28
Waning Gibbous
Sep 5
New
Sep 12
First Quarter
Sep 19
Full
Sep 26
Last Quarter

Hourly Weather History & Observations

Time (CDT) Temp. Heat Index Dew Point Humidity Pressure Visibility Wind Dir Wind Speed Gust Speed Precip Events Conditions
12:53 AM 73.0 °F - 70.0 °F 90% 30.04 in 9.0 mi Calm Calm - N/A   Clear
1:53 AM 72.0 °F - 70.0 °F 93% 30.04 in 8.0 mi Calm Calm - N/A   Clear
2:53 AM 73.0 °F - 69.1 °F 87% 30.04 in 10.0 mi Calm Calm - N/A   Clear
3:53 AM 71.1 °F - 69.1 °F 93% 30.04 in 7.0 mi Calm Calm - N/A   Clear
4:53 AM 70.0 °F - 69.1 °F 97% 30.04 in 6.0 mi Calm Calm - N/A   Clear
5:53 AM 70.0 °F - 69.1 °F 97% 30.05 in 5.0 mi Calm Calm - N/A   Scattered Clouds
6:53 AM 70.0 °F - 69.1 °F 97% 30.06 in 5.0 mi Calm Calm - N/A   Mostly Cloudy
7:53 AM 73.0 °F - 71.1 °F 93% 30.07 in 5.0 mi Calm Calm - N/A   Clear
8:53 AM 77.0 °F - 72.0 °F 84% 30.09 in 8.0 mi Calm Calm - N/A   Partly Cloudy
9:53 AM 82.9 °F 88.0 °F 72.0 °F 69% 30.09 in 10.0 mi WNW 3.5 mph - N/A   Partly Cloudy
10:53 AM 88.0 °F 92.1 °F 69.1 °F 53% 30.08 in 10.0 mi North 6.9 mph - N/A   Clear
11:53 AM 91.0 °F 95.6 °F 69.1 °F 48% 30.06 in 10.0 mi Variable 4.6 mph - N/A   Scattered Clouds
12:53 PM 91.0 °F 95.6 °F 69.1 °F 48% 30.05 in 10.0 mi Variable 3.5 mph - N/A   Mostly Cloudy
1:53 PM 93.9 °F 98.6 °F 68.0 °F 43% 30.03 in 10.0 mi Calm Calm - N/A   Partly Cloudy
2:53 PM 93.9 °F 97.0 °F 66.0 °F 40% 30.01 in 10.0 mi Calm Calm - N/A   Scattered Clouds
3:53 PM 93.0 °F 96.4 °F 66.9 °F 42% 30.00 in 10.0 mi East 5.8 mph - N/A   Partly Cloudy
4:53 PM 93.0 °F 97.4 °F 68.0 °F 44% 30.00 in 10.0 mi ENE 4.6 mph - N/A   Partly Cloudy
5:53 PM 91.0 °F 94.3 °F 66.9 °F 45% 29.99 in 10.0 mi East 5.8 mph - N/A   Clear
6:53 PM 89.1 °F 91.3 °F 66.0 °F 46% 29.99 in 10.0 mi East 6.9 mph - N/A   Clear
7:53 PM 82.9 °F 86.5 °F 69.1 °F 63% 30.00 in 10.0 mi East 4.6 mph - N/A   Clear
8:53 PM 82.0 °F 84.9 °F 68.0 °F 62% 30.02 in 10.0 mi ESE 6.9 mph - N/A   Clear
9:53 PM 79.0 °F - 68.0 °F 69% 30.04 in 10.0 mi South 4.6 mph - N/A   Clear
10:53 PM 75.9 °F - 69.1 °F 79% 30.04 in 10.0 mi Calm Calm - N/A   Clear
11:53 PM 73.9 °F - 69.1 °F 85% 30.04 in 9.0 mi Calm Calm - N/A   Clear